• In Belarus
  • List of Countries
  • For 7 days
  • Water Temperature
  • Satellite Maps
  • Weather Map
  • Weather Widgets
  • user-avatar
    Login

    Hourly Weather Chatra

    Today, 16 February, Saturday

    Time Temperature Precipitation Wind Pressure Humidity
    00:00 +18°C° 0 mm 1 mps 725 mmHg 85%
    01:00 +17°C° 1.2 mm 2 mps 725 mmHg 84%
    02:00 +17°C° 1.2 mm 3 mps 725 mmHg 83%
    03:00 +18°C° 1.2 mm 4 mps 724 mmHg 82%
    04:00 +18°C° 0.1 mm 4 mps 724 mmHg 80%
    05:00 +18°C° 0.1 mm 4 mps 724 mmHg 77%
    06:00 +18°C° 0 mm 1 mps 724 mmHg 83%
    07:00 +18°C° 0 mm 2 mps 724 mmHg 78%
    08:00 +19°C° 0 mm 2 mps 725 mmHg 74%
    09:00 +20°C° 0 mm 3 mps 725 mmHg 69%
    10:00 +22°C° 0 mm 3 mps 725 mmHg 62%
    11:00 +25°C° 0 mm 3 mps 725 mmHg 55%
    12:00 +27°C° 0 mm 3 mps 725 mmHg 48%
    13:00 +27°C° 0 mm 3 mps 724 mmHg 46%
    14:00 +28°C° 0 mm 3 mps 723 mmHg 43%
    15:00 +28°C° 0 mm 3 mps 722 mmHg 41%
    16:00 +27°C° 0 mm 3 mps 722 mmHg 46%
    17:00 +26°C° 0 mm 2 mps 722 mmHg 51%
    18:00 +24°C° 0 mm 2 mps 721 mmHg 55%
    19:00 +23°C° 0 mm 2 mps 722 mmHg 61%
    20:00 +21°C° 0 mm 2 mps 722 mmHg 66%
    21:00 +20°C° 0 mm 2 mps 722 mmHg 72%
    22:00 +19°C° 0 mm 2 mps 722 mmHg 75%
    23:00 +19°C° 0 mm 2 mps 722 mmHg 78%

    Tomorrow, 17 February, Sunday

    Time Temperature Precipitation Wind Pressure Humidity
    00:00 +18°C° 0 mm 2 mps 722 mmHg 82%
    01:00 +18°C° 0 mm 2 mps 722 mmHg 83%
    02:00 +17°C° 0 mm 2 mps 722 mmHg 85%
    03:00 +17°C° 0 mm 2 mps 722 mmHg 87%
    04:00 +16°C° 0 mm 2 mps 722 mmHg 87%
    05:00 +16°C° 0 mm 2 mps 722 mmHg 86%
    06:00 +15°C° 0 mm 2 mps 722 mmHg 86%
    07:00 +16°C° 0 mm 3 mps 723 mmHg 78%
    08:00 +17°C° 0 mm 4 mps 723 mmHg 70%
    09:00 +18°C° 0 mm 4 mps 724 mmHg 62%
    10:00 +20°C° 0 mm 5 mps 724 mmHg 53%
    11:00 +21°C° 0 mm 5 mps 724 mmHg 44%
    12:00 +22°C° 0 mm 6 mps 723 mmHg 36%
    13:00 +23°C° 0 mm 6 mps 723 mmHg 34%
    14:00 +23°C° 0 mm 6 mps 722 mmHg 32%
    15:00 +25°C° 0 mm 5 mps 721 mmHg 31%
    16:00 +23°C° 0 mm 4 mps 721 mmHg 37%
    17:00 +22°C° 0 mm 3 mps 721 mmHg 44%
    18:00 +20°C° 0 mm 2 mps 720 mmHg 50%
    19:00 +19°C° 0 mm 2 mps 721 mmHg 57%
    20:00 +19°C° 0 mm 1 mps 721 mmHg 63%
    21:00 +18°C° 0 mm 1 mps 721 mmHg 69%
    22:00 +18°C° 0 mm 1 mps 721 mmHg 71%
    23:00 +16°C° 0 mm 1 mps 721 mmHg 73%

    Day after tomorrow, 18 February, Monday

    Time Temperature Precipitation Wind Pressure Humidity
    00:00 +16°C° 0 mm 1 mps 721 mmHg 76%
    01:00 +16°C° 0 mm 1 mps 721 mmHg 76%
    02:00 +15°C° 0 mm 1 mps 721 mmHg 76%
    03:00 +15°C° 0 mm 2 mps 721 mmHg 76%
    04:00 +14°C° 0 mm 2 mps 721 mmHg 74%
    05:00 +14°C° 0 mm 2 mps 721 mmHg 73%
    06:00 +14°C° 0 mm 2 mps 721 mmHg 71%
    07:00 +15°C° 0 mm 2 mps 721 mmHg 66%
    08:00 +17°C° 0 mm 3 mps 722 mmHg 60%
    09:00 +18°C° 0 mm 3 mps 723 mmHg 55%
    10:00 +20°C° 0 mm 3 mps 723 mmHg 49%
    11:00 +21°C° 0 mm 3 mps 723 mmHg 42%
    12:00 +24°C° 0 mm 3 mps 723 mmHg 36%
    13:00 +25°C° 0 mm 3 mps 722 mmHg 33%
    14:00 +26°C° 0 mm 3 mps 721 mmHg 31%
    15:00 +27°C° 0 mm 3 mps 721 mmHg 28%
    16:00 +25°C° 0 mm 2 mps 720 mmHg 32%
    17:00 +24°C° 0 mm 2 mps 720 mmHg 35%
    18:00 +23°C° 0 mm 1 mps 720 mmHg 38%
    19:00 +22°C° 0 mm 1 mps 721 mmHg 40%
    20:00 +21°C° 0 mm 1 mps 721 mmHg 41%
    21:00 +18°C° 0 mm 0 mps 722 mmHg 43%
    22:00 +18°C° 0 mm 0 mps 722 mmHg 44%
    23:00 +18°C° 0 mm 0 mps 722 mmHg 44%

    19 February, Tuesday

    Time Temperature Precipitation Wind Pressure Humidity
    00:00 +18°C° 0 mm 0 mps 722 mmHg 45%
    01:00 +17°C° 0 mm 0 mps 722 mmHg 46%
    02:00 +17°C° 0 mm 0 mps 721 mmHg 48%
    03:00 +16°C° 0 mm 0 mps 721 mmHg 49%
    04:00 +16°C° 0 mm 0 mps 721 mmHg 50%
    05:00 +16°C° 0 mm 0 mps 721 mmHg 51%
    06:00 +18°C° 0 mm 1 mps 721 mmHg 51%
    07:00 +19°C° 0 mm 1 mps 722 mmHg 48%
    08:00 +21°C° 0 mm 1 mps 723 mmHg 45%
    09:00 +23°C° 0 mm 1 mps 724 mmHg 42%
    10:00 +25°C° 0 mm 1 mps 724 mmHg 37%
    11:00 +27°C° 0 mm 1 mps 725 mmHg 32%
    12:00 +28°C° 0 mm 0 mps 725 mmHg 27%
    13:00 +30°C° 0 mm 1 mps 724 mmHg 25%
    14:00 +30°C° 0 mm 2 mps 724 mmHg 24%
    15:00 +31°C° 0 mm 3 mps 723 mmHg 23%
    16:00 +29°C° 0 mm 3 mps 723 mmHg 28%
    17:00 +28°C° 0 mm 2 mps 723 mmHg 32%
    18:00 +26°C° 0 mm 2 mps 723 mmHg 37%
    19:00 +25°C° 0 mm 2 mps 723 mmHg 39%
    20:00 +23°C° 0 mm 2 mps 724 mmHg 42%
    21:00 +22°C° 0 mm 1 mps 724 mmHg 44%
    22:00 +22°C° 0 mm 1 mps 724 mmHg 45%
    23:00 +21°C° 0 mm 1 mps 725 mmHg 46%

    20 February, Wednesday

    Time Temperature Precipitation Wind Pressure Humidity
    00:00 +19°C° 0 mm 0 mps 725 mmHg 47%
    01:00 +18°C° 0 mm 0 mps 724 mmHg 48%
    02:00 +18°C° 0 mm 0 mps 724 mmHg 49%
    03:00 +18°C° 0 mm 0 mps 724 mmHg 50%
    04:00 +17°C° 0 mm 0 mps 724 mmHg 51%
    05:00 +17°C° 0 mm 0 mps 724 mmHg 53%
    06:00 +17°C° 0 mm 0 mps 724 mmHg 54%
    07:00 +20°C° 0 mm 1 mps 725 mmHg 50%
    08:00 +22°C° 0 mm 1 mps 726 mmHg 46%
    09:00 +24°C° 0 mm 1 mps 727 mmHg 43%
    10:00 +26°C° 0 mm 1 mps 727 mmHg 38%
    11:00 +29°C° 0 mm 1 mps 727 mmHg 33%
    12:00 +29°C° 0 mm 0 mps 726 mmHg 29%
    13:00 +31°C° 0 mm 1 mps 726 mmHg 28%
    14:00 +31°C° 0 mm 2 mps 725 mmHg 27%
    15:00 +32°C° 0 mm 2 mps 724 mmHg 26%
    16:00 +30°C° 0 mm 2 mps 724 mmHg 30%
    17:00 +29°C° 0 mm 2 mps 724 mmHg 34%
    18:00 +27°C° 0 mm 2 mps 723 mmHg 39%
    19:00 +26°C° 0 mm 2 mps 724 mmHg 41%
    20:00 +25°C° 0 mm 1 mps 725 mmHg 43%
    21:00 +24°C° 0 mm 1 mps 725 mmHg 44%
    22:00 +23°C° 0 mm 1 mps 725 mmHg 46%
    23:00 +23°C° 0 mm 1 mps 725 mmHg 48%

    21 February, Thursday

    Time Temperature Precipitation Wind Pressure Humidity
    00:00 +20°C° 0 mm 0 mps 725 mmHg 49%
    01:00 +22°C° 0 mm 1 mps 725 mmHg 50%
    02:00 +21°C° 0 mm 1 mps 725 mmHg 52%
    03:00 +21°C° 0 mm 1 mps 725 mmHg 53%
    04:00 +21°C° 0 mm 1 mps 725 mmHg 54%
    05:00 +20°C° 0 mm 1 mps 725 mmHg 55%
    06:00 +20°C° 0 mm 1 mps 725 mmHg 56%
    07:00 +22°C° 0 mm 1 mps 726 mmHg 52%
    08:00 +23°C° 0 mm 1 mps 726 mmHg 48%
    09:00 +25°C° 0 mm 1 mps 727 mmHg 44%
    10:00 +27°C° 0 mm 1 mps 727 mmHg 39%
    11:00 +29°C° 0 mm 1 mps 727 mmHg 34%
    12:00 +32°C° 0 mm 1 mps 727 mmHg 29%
    13:00 +32°C° 0 mm 2 mps 726 mmHg 28%
    14:00 +34°C° 0 mm 2 mps 725 mmHg 26%
    15:00 +35°C° 0 mm 2 mps 724 mmHg 24%
    16:00 +33°C° 0 mm 3 mps 724 mmHg 29%
    17:00 +30°C° 0 mm 3 mps 724 mmHg 34%
    18:00 +29°C° 0 mm 3 mps 723 mmHg 38%
    19:00 +27°C° 0 mm 3 mps 724 mmHg 42%
    20:00 +26°C° 0 mm 3 mps 724 mmHg 45%
    21:00 +24°C° 0 mm 2 mps 725 mmHg 48%
    22:00 +24°C° 0 mm 2 mps 725 mmHg 50%
    23:00 +23°C° 0 mm 2 mps 725 mmHg 52%
    Show more